This demonstration page uses our WeatherBlox Daily Observations layout. Learn more.

39.51506, -84.39828

Hourly Observations for August 5, 2020

Temp ( °F °C ) Dew Point ( °F °C ) Humidity (%) Winds ( mph kmh ) Pressure ( in mb ) Visibility ( mi km ) Precip ( " mm )
12:15 am 00:15 Clear 60 15.7 59 15 96 96 Calm 30.07 1018 10 16.0934 0 0
12:35 am 00:35 Clear with Mist and Fog 60 15.5 59 15.1 97 97 Calm 30.08 1018 7 11.26538 0 0
12:55 am 00:55 Clear 59 15 59 14.9 99 99 Calm 30.09 1019 10 16.0934 0 0
1:15 am 01:15 Clear 58 14.6 58 14.5 99 99 Calm 30.09 1019 10 16.0934 0 0
1:35 am 01:35 Clear 58 14.4 58 14.4 100 100 Calm 30.09 1019 10 16.0934 0 0
1:55 am 01:55 Clear 59 15.2 57 14.1 93 93 N 3 6 30.08 1018 10 16.0934 0 0
2:15 am 02:15 Clear 59 14.9 56 13.6 92 92 Calm 30.08 1019 10 16.0934 0 0
2:35 am 02:35 Clear 58 14.7 56 13.4 92 92 NNE 3 6 30.08 1019 10 16.0934 0 0
2:55 am 02:55 Clear 58 14.2 56 13.4 95 95 Calm 30.09 1019 10 16.0934 0 0
3:15 am 03:15 Clear with Mist and Fog 58 14.2 56 13.2 94 94 Calm 30.09 1019 5 8.0467 0 0
3:35 am 03:35 Clear 58 14.3 56 13.1 93 93 Calm 30.09 1019 7 11.26538 0 0
3:55 am 03:55 Clear 58 14.3 55 13 92 92 Calm 30.09 1019 10 16.0934 0 0
4:15 am 04:15 Clear 57 14.1 55 12.8 92 92 Calm 30.09 1019 10 16.0934 0 0
4:35 am 04:35 Clear 57 14.1 55 12.8 92 92 Calm 30.09 1019 10 16.0934 0 0
4:55 am 04:55 Clear 56 13.6 55 12.5 93 93 NNE 3 6 30.09 1019 10 16.0934 0 0
5:15 am 05:15 Clear 56 13.4 55 12.6 95 95 Calm 30.1 1019 10 16.0934 0 0
5:35 am 05:35 Clear 55 12.9 55 12.5 97 97 Calm 30.1 1019 10 16.0934 0 0
5:55 am 05:55 Clear 56 13.2 55 12.7 97 97 Calm 30.11 1020 10 16.0934 0 0
6:15 am 06:15 Clear 55 12.9 55 12.7 99 99 Calm 30.12 1020 10 16.0934 0 0
6:35 am 06:35 Clear 54 12.2 54 12 99 99 Calm 30.12 1020 10 16.0934 0 0
6:55 am 06:55 Sunny 54 12.4 54 12.4 100 100 Calm 30.13 1020 10 16.0934 0 0
7:15 am 07:15 Sunny 54 12.4 54 12.4 100 100 Calm 30.13 1020 10 16.0934 0 0
7:35 am 07:35 Partly Cloudy 56 13.2 56 13.2 100 100 Calm 30.14 1021 10 16.0934 0 0
7:55 am 07:55 Cloudy 56 13.6 56 13.4 99 99 Calm 30.14 1021 10 16.0934 0 0
8:15 am 08:15 Partly Cloudy 58 14.3 55 12.9 91 91 Calm 30.14 1021 10 16.0934 0 0
8:35 am 08:35 Partly Cloudy 59 15 56 13.4 90 90 Calm 30.14 1021 10 16.0934 0 0
8:55 am 08:55 Partly Cloudy 61 16 56 13.3 84 84 NE 3 6 30.14 1021 10 16.0934 0 0
9:15 am 09:15 Sunny 62 16.8 56 13.2 79 79 ENE 3 6 30.13 1020 10 16.0934 0 0
9:35 am 09:35 Sunny 64 17.5 56 13.2 76 76 ENE 3 6 30.14 1021 10 16.0934 0 0
9:55 am 09:55 Sunny 65 18.5 57 14 75 75 ENE 3 6 30.14 1021 10 16.0934 0 0
10:15 am 10:15 Sunny 66 18.8 56 13.3 71 71 Calm 30.14 1021 10 16.0934 0 0
10:35 am 10:35 Sunny 68 19.8 57 14 69 69 NNE 3 6 30.13 1020 10 16.0934 0 0
10:55 am 10:55 Sunny 69 20.6 55 12.7 61 61 Calm 30.13 1020 10 16.0934 0 0
11:15 am 11:15 Sunny 70 20.9 54 12.4 58 58 N 5 7 30.14 1021 10 16.0934 0 0
11:35 am 11:35 Sunny 71 21.4 54 12.1 56 56 NE 5 7 30.13 1020 10 16.0934 0 0
11:55 am 11:55 Sunny 71 21.8 55 12.5 56 56 NE 3 6 30.13 1020 10 16.0934 0 0
12:15 pm 12:15 Sunny 72 22.2 53 11.5 51 51 WNW 6 9 30.14 1021 10 16.0934 0 0
12:35 pm 12:35 Sunny 72 22.1 52 11.2 50 50 Calm 30.14 1021 10 16.0934 0 0
12:55 pm 12:55 Sunny 73 22.5 52 11.3 49 49 Calm 30.14 1021 10 16.0934 0 0
1:15 pm 13:15 Sunny 73 22.8 53 11.8 50 50 Calm 30.13 1020 10 16.0934 0 0
1:35 pm 13:35 Sunny 73 22.9 54 12 50 50 ENE 3 6 30.13 1020 10 16.0934 0 0
1:55 pm 13:55 Partly Cloudy 74 23.2 55 12.5 51 51 WNW 5 7 30.12 1020 10 16.0934 0 0
2:15 pm 14:15 Partly Cloudy 74 23.2 53 11.8 49 49 N 5 7 30.12 1020 10 16.0934 0 0
2:35 pm 14:35 Sunny 73 23 54 12.1 50 50 NW 5 7 30.12 1020 10 16.0934 0 0
2:55 pm 14:55 Sunny 74 23.1 53 11.5 48 48 SW 3 6 30.12 1020 10 16.0934 0 0
3:15 pm 15:15 Sunny 74 23.6 55 12.5 50 50 WNW 5 7 30.12 1020 10 16.0934 0 0
3:35 pm 15:35 Sunny 73 23 53 11.5 48 48 N 6 9 30.12 1020 10 16.0934 0 0
3:55 pm 15:55 Sunny 74 23.6 55 12.6 50 50 W 6 9 30.11 1020 10 16.0934 0 0
4:15 pm 16:15 Sunny 74 23.4 55 12.7 51 51 Calm 30.11 1020 10 16.0934 0 0
4:35 pm 16:35 Sunny 75 23.7 54 12.3 49 49 Calm 30.11 1020 10 16.0934 0 0
4:55 pm 16:55 Mostly Cloudy 75 24.1 56 13.1 50 50 WNW 3 6 30.1 1019 10 16.0934 0 0
5:15 pm 17:15 Sunny 73 22.7 55 12.9 54 54 WNW 5 7 30.1 1019 10 16.0934 0 0
5:35 pm 17:35 Sunny 73 22.7 55 12.7 53 53 Calm 30.09 1019 10 16.0934 0 0
5:55 pm 17:55 Sunny 75 23.8 55 12.9 51 51 Calm 30.09 1019 10 16.0934 0 0
6:15 pm 18:15 Sunny 74 23.4 55 12.6 51 51 NNW 6 9 30.09 1019 10 16.0934 0 0
6:35 pm 18:35 Sunny 74 23.4 55 12.5 50 50 N 3 6 30.08 1019 10 16.0934 0 0
6:55 pm 18:55 Sunny 74 23.1 56 13.5 55 55 N 5 7 30.07 1018 10 16.0934 0 0
7:15 pm 19:15 Sunny 73 22.9 55 12.8 53 53 N 3 6 30.08 1019 10 16.0934 0 0
7:35 pm 19:35 Sunny 70 21 56 13.5 62 62 NNW 5 7 30.07 1018 10 16.0934 0 0
7:55 pm 19:55 Sunny 68 20.2 57 14 68 68 NNW 5 7 30.07 1018 10 16.0934 0 0
8:15 pm 20:15 Sunny 67 19.7 58 14.3 71 71 NNW 6 9 30.08 1018 10 16.0934 0 0
8:35 pm 20:35 Sunny 66 19.1 58 14.2 73 73 N 3 6 30.08 1019 10 16.0934 0 0
8:55 pm 20:55 Clear 64 17.9 59 15.2 84 84 Calm 30.08 1019 10 16.0934 0 0
9:15 pm 21:15 Clear 64 18 59 15 83 83 Calm 30.08 1019 10 16.0934 0 0
9:35 pm 21:35 Clear 62 16.9 59 15 89 89 Calm 30.08 1019 7 11.26538 0 0
9:55 pm 21:55 Clear 63 17.1 59 14.8 86 86 Calm 30.09 1019 10 16.0934 0 0
10:15 pm 22:15 Clear 62 16.5 58 14.6 89 89 N 3 6 30.09 1019 10 16.0934 0 0
10:35 pm 22:35 Clear 60 15.6 58 14.6 94 94 Calm 30.1 1019 7 11.26538 0 0
10:55 pm 22:55 Clear 59 15 58 14.4 96 96 Calm 30.12 1020 10 16.0934 0 0
11:15 pm 23:15 Clear with Mist and Fog 59 15 58 14.2 95 95 Calm 30.12 1020 3 4.82802 0 0
11:35 pm 23:35 Clear 58 14.7 57 14 96 96 Calm 30.12 1020 10 16.0934 0 0
11:55 pm 23:55 Clear 59 15 58 14.2 95 95 Calm 30.12 1020 7 11.26538 0 0

Powered by AerisWeather